Location: ??????
(41.3794°N, 22.5014°E)
Time: 22:31:23
(UTC+00:00)

SL-16 R/B - Pass Details

Date: 30 November 2020
Orbit: 841 x 849 km, 71.0° (Epoch: 18 January)

Event Time Altitude Azimuth Distance (km) Brightness Sun altitude
Rises 15:20:51 0° 195° (SSW) 3,382 6.0 -4.1°
Reaches altitude 10° 15:23:18 10° 193° (SSW) 2,450 5.2 -4.5°
Maximum altitude 15:28:53 70° 110° (ESE) 896 2.2 -5.4°
Drops below altitude 10° 15:34:30 10° 28° (NNE) 2,465 4.2 -6.4°
Sets 15:36:57 0° 27° (NNE) 3,404 4.9 -6.8°
